Regional Weather Roundup
Issued by NWS

Home | Current Version | Previous Version | Graphics & Text | Print | Product List | Glossary On
Versions: 1 2 3 4 5 6 7 8 9 10 11 12 13 14 15 16 17 18 19 20 21 22 23 24 25 26 27 28 29 30 31 32 33 34 35 36 37 38 39 40 41 42 43 44 45 46 47 48 49 50
000
ASUS43 KOAX 260202
RWRNE

WEATHER ROUNDUP FOR NEBRASKA
NATIONAL WEATHER SERVICE OMAHA NE
900 PM CDT SAT OCT 25 2014

NOTES: SATELLITE DATA IS BEING USED TO AUGMENT CLOUD COVER ABOVE
       12000 FEET.
       "FAIR" INDICATES FEW OR NO CLOUDS BELOW 12,000 FEET WITH NO
       SIGNIFICANT WEATHER AND/OR OBSTRUCTIONS TO VISIBILITY.

  * THESE STATIONS DO NOT REPORT WEATHER SUCH AS RAIN...SNOW OR FOG.

NEZ001>004-019>022-054>056-260300-
NEBRASKA PANHANDLE

CITY           SKY/WX    TMP DP  RH WIND       PRES   REMARKS
SCOTTSBLUFF    CLEAR     54  38  54 E8        29.98S
ALLIANCE       CLEAR     50  35  56 SE8       29.98F
CHADRON        CLEAR     60  38  43 S5        29.91F
KIMBALL        CLEAR     52  32  46 S5        30.02S
SIDNEY         CLEAR     50  36  58 S8        30.01F
$$

NEZ057>060-069>072-079>082-260300-
SOUTHWEST NEBRASKA

CITY           SKY/WX    TMP DP  RH WIND       PRES   REMARKS
NORTH PLATTE   CLEAR     54  45  71 E8        29.99F
IMPERIAL       CLEAR     64  46  52 E10       29.97F
LEXINGTON      CLEAR     59  46  62 E8        29.99F
MCCOOK         CLEAR     63  52  67 NE9       29.96S
OGALLALA       CLEAR     58  47  67 E8        29.99R
$$

NEZ005>010-023>029-035>040-094-260300-
NORTH CENTRAL NEBRASKA

CITY           SKY/WX    TMP DP  RH WIND       PRES   REMARKS
VALENTINE      CLEAR     55  33  43 E12       30.00F
AINSWORTH      CLEAR     48  35  60 E3        30.03S
BROKEN BOW     CLEAR     57  42  57 E7        30.01F
O`NEILL        CLEAR     54  37  52 E9        30.04S
ORD            CLEAR     47  39  74 CALM      30.00F
THEDFORD       CLEAR     56  41  57 SE3       30.02F
$$

NEZ041-046>049-061>064-073>077-083>087-260300-
SOUTH CENTRAL NEBRASKA

CITY           SKY/WX    TMP DP  RH WIND       PRES   REMARKS
GRAND ISLAND   CLEAR     55  44  66 E6        30.01F
AURORA         CLEAR     56  42  59 E8        30.01F
HASTINGS       CLEAR     60  44  55 E12       30.00F
HEBRON         CLEAR     60  47  63 E6        29.99S
HOLDREGE       CLEAR     58  47  65 E10       29.98F
KEARNEY *      CLEAR     57  45  62 NE10      30.00F
YORK           CLEAR     55  46  71 E8        30.02F
$$

NEZ011>018-030>034-042>045-260300-
NORTHEAST NEBRASKA

CITY           SKY/WX    TMP DP  RH WIND       PRES   REMARKS
NORFOLK        CLEAR     54  37  52 E3        30.04F
ALBION         CLEAR     54  38  54 CALM      30.03F
BLAIR          CLEAR     60  40  48 NE7       30.04S
COLUMBUS *     CLEAR     55  37  50 E3        30.05S
FREMONT        CLEAR     60  40  47 NE5       30.04S
TEKAMAH        CLEAR     51  42  71 N7        30.05R
WAYNE          CLEAR     46  38  74 CALM      30.05F
$$

NEZ050>053-065>068-078-088>093-260300-
SOUTHEAST NEBRASKA

CITY           SKY/WX    TMP DP  RH WIND       PRES   REMARKS
LINCOLN        CLEAR     58  44  60 N3        30.02F
OMAHA EPPLEY   CLEAR     62  40  44 E3        30.04S
BEATRICE       CLEAR     61  46  57 E6        30.00S
FALLS CITY     CLEAR     61  47  59 E6        29.99F
NEBRASKA CITY  CLEAR     62  39  43 E3        30.02F
PLATTSMOUTH    CLEAR     60  40  48 NE8       30.03F
$$

NEZ044-045-051>053-067-260300-
OMAHA AREA

CITY           SKY/WX    TMP DP  RH WIND       PRES   REMARKS
OMAHA EPPLEY   CLEAR     62  40  44 E3        30.04S
BLAIR          CLEAR     60  40  48 NE7       30.04S
FREMONT        CLEAR     60  40  47 NE5       30.04S
OFFUTT AFB     CLEAR     57  47  67 NE6       30.03S
PLATTSMOUTH    CLEAR     60  40  48 NE8       30.03F
WAHOO          FAIR      55  41  60 NE6       30.04R
$$



USA.gov is the U.S. government's official web portal to all federal, state and local government web resources and services.